RADUGA 26 [-]

Last updated on Nov. 12, 2019, 4:19 a.m. UTC

1 21016U 90112A   19315.69766132  .00000044  00000-0  00000+0 0  9999
2 21016  14.7853 357.2219 0006502  25.1486 338.1938  1.00239399106084
UTC
Height (km)
Latitude
Longitude
Inclination
Orbital Period
UTC large
Height (km)
Speed (km/s)
/
Latitude / Longitude
Inclination (degrees)
Orbital Period (minutes)
Azimuth
Elevation
Range (km)
Doppler Factor
iOS Compass Heading
iOS Angle

Next 30 passes for location: Hong Kong

Rise time Rise Azimuth (degrees) Set time Set Azimuth (degrees) Duration Max altitude (degrees)

No matching passes for this satellites